When you browse on this site, cookies collect data to enhance your experience and personalize the content and advertising you see.
Visit our Privacy Policy to learn more. By continuing to use the site, you agree to this use of cookies and data.
  • In Österreich
  • Länderverzeichnis
  • Für 7 Tage
  • Wassertemperatur
  • Satellitenkarten
  • Wetterkarte
  • News
  • Widgets
  • user-avatar
    Anmelden

    Stündliche Wetter Perth

    Heute, 21 März, Donnerstag

    Zeit Temperatur Niederschläge Wind Luftdruck Luftfeuchtigkeit
    00:00 +27°C° 0 mm 2 m/S 755 mmHg 66%
    01:00 +27°C° 0 mm 2 m/S 755 mmHg 63%
    02:00 +28°C° 0 mm 3 m/S 755 mmHg 57%
    03:00 +27°C° 0.5 mm 3 m/S 755 mmHg 61%
    04:00 +26°C° 0.5 mm 4 m/S 755 mmHg 65%
    05:00 +26°C° 0.5 mm 4 m/S 755 mmHg 70%
    06:00 +26°C° 0.1 mm 3 m/S 755 mmHg 68%
    07:00 +26°C° 0.1 mm 3 m/S 755 mmHg 67%
    08:00 +26°C° 0 mm 2 m/S 756 mmHg 71%
    09:00 +27°C° 0 mm 2 m/S 756 mmHg 65%
    10:00 +29°C° 0 mm 2 m/S 755 mmHg 58%
    11:00 +30°C° 0 mm 2 m/S 755 mmHg 52%
    12:00 +32°C° 0 mm 2 m/S 755 mmHg 49%
    13:00 +34°C° 0 mm 3 m/S 754 mmHg 47%
    14:00 +34°C° 0 mm 2 m/S 754 mmHg 50%
    15:00 +33°C° 0 mm 3 m/S 754 mmHg 52%
    16:00 +33°C° 0 mm 3 m/S 754 mmHg 54%
    17:00 +31°C° 0 mm 3 m/S 754 mmHg 56%
    18:00 +29°C° 0 mm 3 m/S 754 mmHg 62%
    19:00 +28°C° 0 mm 2 m/S 755 mmHg 68%
    20:00 +26°C° 0 mm 1 m/S 755 mmHg 75%
    21:00 +26°C° 0 mm 1 m/S 755 mmHg 74%
    22:00 +26°C° 0 mm 1 m/S 755 mmHg 74%
    23:00 +26°C° 0 mm 1 m/S 756 mmHg 74%

    Morgen, 22 März, Freitag

    Zeit Temperatur Niederschläge Wind Luftdruck Luftfeuchtigkeit
    00:00 +26°C° 0 mm 2 m/S 756 mmHg 74%
    01:00 +25°C° 0 mm 2 m/S 756 mmHg 74%
    02:00 +25°C° 0 mm 3 m/S 756 mmHg 73%
    03:00 +25°C° 0 mm 3 m/S 756 mmHg 75%
    04:00 +24°C° 0 mm 3 m/S 756 mmHg 77%
    05:00 +24°C° 0 mm 3 m/S 756 mmHg 78%
    06:00 +24°C° 0 mm 3 m/S 756 mmHg 77%
    07:00 +23°C° 0 mm 4 m/S 756 mmHg 75%
    08:00 +25°C° 0 mm 4 m/S 757 mmHg 73%
    09:00 +26°C° 0 mm 4 m/S 757 mmHg 67%
    10:00 +28°C° 0 mm 4 m/S 757 mmHg 60%
    11:00 +30°C° 0 mm 4 m/S 757 mmHg 53%
    12:00 +30°C° 0 mm 5 m/S 757 mmHg 53%
    13:00 +30°C° 0 mm 5 m/S 757 mmHg 52%
    14:00 +30°C° 0 mm 6 m/S 757 mmHg 51%
    15:00 +29°C° 0 mm 6 m/S 757 mmHg 53%
    16:00 +28°C° 0 mm 6 m/S 757 mmHg 55%
    17:00 +28°C° 0 mm 6 m/S 757 mmHg 57%
    18:00 +26°C° 0 mm 6 m/S 758 mmHg 61%
    19:00 +24°C° 0 mm 6 m/S 758 mmHg 65%
    20:00 +22°C° 0 mm 6 m/S 759 mmHg 69%
    21:00 +21°C° 0 mm 6 m/S 759 mmHg 68%
    22:00 +21°C° 0 mm 6 m/S 760 mmHg 67%
    23:00 +20°C° 0 mm 6 m/S 760 mmHg 66%

    übermorgen, 23 März, Samstag

    Zeit Temperatur Niederschläge Wind Luftdruck Luftfeuchtigkeit
    00:00 +19°C° 0 mm 6 m/S 760 mmHg 66%
    01:00 +17°C° 0 mm 6 m/S 761 mmHg 66%
    02:00 +17°C° 0 mm 6 m/S 761 mmHg 66%
    03:00 +16°C° 0 mm 6 m/S 761 mmHg 66%
    04:00 +16°C° 0 mm 6 m/S 761 mmHg 66%
    05:00 +16°C° 0 mm 6 m/S 761 mmHg 67%
    06:00 +16°C° 0 mm 6 m/S 761 mmHg 65%
    07:00 +16°C° 0 mm 6 m/S 761 mmHg 62%
    08:00 +17°C° 0 mm 6 m/S 762 mmHg 60%
    09:00 +20°C° 0 mm 6 m/S 762 mmHg 53%
    10:00 +22°C° 0 mm 6 m/S 762 mmHg 45%
    11:00 +25°C° 0 mm 5 m/S 762 mmHg 37%
    12:00 +26°C° 0 mm 5 m/S 761 mmHg 35%
    13:00 +27°C° 0 mm 5 m/S 760 mmHg 32%
    14:00 +28°C° 0 mm 5 m/S 759 mmHg 29%
    15:00 +28°C° 0 mm 5 m/S 759 mmHg 31%
    16:00 +28°C° 0 mm 5 m/S 759 mmHg 32%
    17:00 +27°C° 0 mm 5 m/S 759 mmHg 34%
    18:00 +26°C° 0 mm 5 m/S 759 mmHg 37%
    19:00 +25°C° 0 mm 5 m/S 760 mmHg 40%
    20:00 +22°C° 0 mm 4 m/S 760 mmHg 43%
    21:00 +21°C° 0 mm 4 m/S 760 mmHg 44%
    22:00 +21°C° 0 mm 4 m/S 761 mmHg 44%
    23:00 +20°C° 0 mm 4 m/S 761 mmHg 45%

    24 März, Sonntag

    Zeit Temperatur Niederschläge Wind Luftdruck Luftfeuchtigkeit
    00:00 +19°C° 0 mm 4 m/S 761 mmHg 47%
    01:00 +19°C° 0 mm 4 m/S 761 mmHg 49%
    02:00 +18°C° 0 mm 4 m/S 761 mmHg 51%
    03:00 +17°C° 0 mm 4 m/S 761 mmHg 54%
    04:00 +17°C° 0 mm 4 m/S 761 mmHg 58%
    05:00 +15°C° 0 mm 4 m/S 761 mmHg 61%
    06:00 +15°C° 0 mm 4 m/S 761 mmHg 60%
    07:00 +16°C° 0 mm 5 m/S 762 mmHg 60%
    08:00 +16°C° 0 mm 5 m/S 762 mmHg 59%
    09:00 +19°C° 0 mm 5 m/S 762 mmHg 52%
    10:00 +21°C° 0 mm 5 m/S 762 mmHg 46%
    11:00 +23°C° 0 mm 4 m/S 762 mmHg 40%
    12:00 +25°C° 0 mm 4 m/S 761 mmHg 37%
    13:00 +27°C° 0 mm 4 m/S 760 mmHg 34%
    14:00 +28°C° 0 mm 4 m/S 760 mmHg 31%
    15:00 +28°C° 0 mm 4 m/S 760 mmHg 32%
    16:00 +28°C° 0 mm 4 m/S 759 mmHg 33%
    17:00 +28°C° 0 mm 4 m/S 759 mmHg 34%
    18:00 +26°C° 0 mm 4 m/S 760 mmHg 37%
    19:00 +25°C° 0 mm 4 m/S 761 mmHg 40%
    20:00 +22°C° 0 mm 3 m/S 761 mmHg 43%
    21:00 +22°C° 0 mm 4 m/S 762 mmHg 47%
    22:00 +21°C° 0 mm 5 m/S 762 mmHg 50%
    23:00 +20°C° 0 mm 6 m/S 763 mmHg 54%

    25 März, Montag

    Zeit Temperatur Niederschläge Wind Luftdruck Luftfeuchtigkeit
    00:00 +19°C° 0 mm 6 m/S 763 mmHg 56%
    01:00 +17°C° 0 mm 6 m/S 763 mmHg 58%
    02:00 +16°C° 0 mm 6 m/S 763 mmHg 60%
    03:00 +16°C° 0 mm 6 m/S 763 mmHg 60%
    04:00 +15°C° 0 mm 6 m/S 763 mmHg 61%
    05:00 +15°C° 0 mm 6 m/S 764 mmHg 62%
    06:00 +15°C° 0 mm 7 m/S 764 mmHg 61%
    07:00 +15°C° 0 mm 7 m/S 765 mmHg 60%
    08:00 +15°C° 0 mm 7 m/S 765 mmHg 59%
    09:00 +17°C° 0 mm 7 m/S 765 mmHg 52%
    10:00 +20°C° 0 mm 7 m/S 765 mmHg 44%
    11:00 +22°C° 0 mm 6 m/S 764 mmHg 37%
    12:00 +24°C° 0 mm 6 m/S 764 mmHg 34%
    13:00 +26°C° 0 mm 5 m/S 763 mmHg 30%
    14:00 +27°C° 0 mm 5 m/S 762 mmHg 27%
    15:00 +27°C° 0 mm 5 m/S 762 mmHg 27%
    16:00 +27°C° 0 mm 5 m/S 762 mmHg 27%
    17:00 +27°C° 0 mm 5 m/S 762 mmHg 28%
    18:00 +26°C° 0 mm 5 m/S 763 mmHg 31%
    19:00 +25°C° 0 mm 4 m/S 763 mmHg 34%
    20:00 +22°C° 0 mm 4 m/S 764 mmHg 37%
    21:00 +22°C° 0 mm 5 m/S 764 mmHg 39%
    22:00 +22°C° 0 mm 5 m/S 764 mmHg 40%
    23:00 +21°C° 0 mm 5 m/S 764 mmHg 42%

    26 März, Dienstag

    Zeit Temperatur Niederschläge Wind Luftdruck Luftfeuchtigkeit
    00:00 +21°C° 0 mm 6 m/S 764 mmHg 44%
    01:00 +20°C° 0 mm 6 m/S 764 mmHg 46%
    02:00 +20°C° 0 mm 6 m/S 764 mmHg 49%
    03:00 +19°C° 0 mm 6 m/S 764 mmHg 52%
    04:00 +19°C° 0 mm 6 m/S 764 mmHg 54%
    05:00 +17°C° 0 mm 6 m/S 764 mmHg 57%
    06:00 +19°C° 0 mm 6 m/S 765 mmHg 55%
    07:00 +19°C° 0 mm 6 m/S 765 mmHg 52%
    08:00 +20°C° 0 mm 7 m/S 765 mmHg 50%
    09:00 +22°C° 0 mm 6 m/S 765 mmHg 45%
    10:00 +24°C° 0 mm 6 m/S 765 mmHg 40%
    11:00 +26°C° 0 mm 5 m/S 764 mmHg 35%
    12:00 +28°C° 0 mm 5 m/S 764 mmHg 32%
    13:00 +29°C° 0 mm 4 m/S 763 mmHg 29%
    14:00 +30°C° 0 mm 4 m/S 762 mmHg 27%
    15:00 +30°C° 0 mm 4 m/S 762 mmHg 27%
    16:00 +30°C° 0 mm 4 m/S 762 mmHg 27%
    17:00 +30°C° 0 mm 3 m/S 762 mmHg 27%
    18:00 +28°C° 0 mm 3 m/S 762 mmHg 29%
    19:00 +27°C° 0 mm 3 m/S 762 mmHg 31%
    20:00 +26°C° 0 mm 3 m/S 762 mmHg 33%
    21:00 +25°C° 0 mm 3 m/S 762 mmHg 32%
    22:00 +25°C° 0 mm 4 m/S 762 mmHg 32%
    23:00 +25°C° 0 mm 4 m/S 762 mmHg 32%
    Mehr zeigen